owner,sensor,date,latitude,longitude,vertical_datum,wind_speed,wind_to_direction,wind_speed_of_gust,qcFlag 
TCOON,ioos:station:TCOON:524:1,2015-05-01T00:00:00Z,29.8672,-93.9310,0.0,4.2,188.0,6.0,'11111222,11111222,11111222' 
TCOON,ioos:station:TCOON:524:1,2015-05-01T00:06:00Z,29.8672,-93.9310,0.0,3.7,192.0,5.4,'11111222,11111222,11111222' 
TCOON,ioos:station:TCOON:524:1,2015-05-01T00:12:00Z,29.8672,-93.9310,0.0,3.4,195.0,5.4,'11111222,11111222,11111222' 
TCOON,ioos:station:TCOON:524:1,2015-05-01T00:18:00Z,29.8672,-93.9310,0.0,2.8,194.0,4.1,'1111122,1111122,1111122' 
TCOON,ioos:station:TCOON:524:1,2015-05-01T00:24:00Z,29.8672,-93.9310,0.0,2.8,194.0,4.1,'11111222,11111222,11111222' 
TCOON,ioos:station:TCOON:524:1,2015-05-01T00:30:00Z,29.8672,-93.9310,0.0,2.4,199.0,4.3,'11111222,11111222,11111222' 
TCOON,ioos:station:TCOON:524:1,2015-05-01T00:36:00Z,29.8672,-93.9310,0.0,2.8,202.0,3.9,'11111222,11111222,11111222' 
TCOON,ioos:station:TCOON:524:1,2015-05-01T00:42:00Z,29.8672,-93.9310,0.0,2.6,208.0,3.3,'11111222,11111222,11111222' 
TCOON,ioos:station:TCOON:524:1,2015-05-01T00:48:00Z,29.8672,-93.9310,0.0,3.5,208.0,4.7,'11111222,11111222,11111222' 
TCOON,ioos:station:TCOON:524:1,2015-05-01T00:54:00Z,29.8672,-93.9310,0.0,3.4,209.0,4.7,'11111222,11111222,11111222' 
TCOON,ioos:station:TCOON:524:1,2015-05-01T01:00:00Z,29.8672,-93.9310,0.0,3.8,213.0,5.0,'11111222,11111222,11111222' 
TCOON,ioos:station:TCOON:524:1,2015-05-01T01:06:00Z,29.8672,-93.9310,0.0,3.3,208.0,4.7,'11111222,11111222,11111222' 
TCOON,ioos:station:TCOON:524:1,2015-05-01T01:12:00Z,29.8672,-93.9310,0.0,3.3,211.0,4.5,'11111222,11111222,11111222' 
TCOON,ioos:station:TCOON:524:1,2015-05-01T01:18:00Z,29.8672,-93.9310,0.0,3.3,211.0,4.5,'1111122,1111122,1111122' 
TCOON,ioos:station:TCOON:524:1,2015-05-01T01:24:00Z,29.8672,-93.9310,0.0,3.6,213.0,4.8,'11111222,11111222,11111222' 
TCOON,ioos:station:TCOON:524:1,2015-05-01T01:30:00Z,29.8672,-93.9310,0.0,3.9,211.0,4.9,'11111222,11111222,11111222' 
TCOON,ioos:station:TCOON:524:1,2015-05-01T01:36:00Z,29.8672,-93.9310,0.0,3.7,213.0,4.8,'11111222,11111222,11111222' 
TCOON,ioos:station:TCOON:524:1,2015-05-01T01:42:00Z,29.8672,-93.9310,0.0,3.8,212.0,4.7,'11111222,11111222,11111222' 
TCOON,ioos:station:TCOON:524:1,2015-05-01T01:48:00Z,29.8672,-93.9310,0.0,3.7,214.0,5.0,'11111222,11111222,11111222' 
TCOON,ioos:station:TCOON:524:1,2015-05-01T01:54:00Z,29.8672,-93.9310,0.0,3.9,216.0,4.7,'11111222,11111222,11111222' 
TCOON,ioos:station:TCOON:524:1,2015-05-01T02:00:00Z,29.8672,-93.9310,0.0,3.3,215.0,4.7,'11111222,11111222,11111222' 
TCOON,ioos:station:TCOON:524:1,2015-05-01T02:06:00Z,29.8672,-93.9310,0.0,3.0,213.0,3.9,'11111222,11111222,11111222' 
TCOON,ioos:station:TCOON:524:1,2015-05-01T02:12:00Z,29.8672,-93.9310,0.0,3.3,218.0,4.5,'11111222,11111222,11111222' 
TCOON,ioos:station:TCOON:524:1,2015-05-01T02:18:00Z,29.8672,-93.9310,0.0,3.3,218.0,4.5,'1111122,1111122,1111122' 
TCOON,ioos:station:TCOON:524:1,2015-05-01T02:24:00Z,29.8672,-93.9310,0.0,4.0,224.0,5.9,'11111222,11111222,11111222' 
TCOON,ioos:station:TCOON:524:1,2015-05-01T02:30:00Z,29.8672,-93.9310,0.0,3.3,223.0,4.7,'11111222,11111222,11111222' 
TCOON,ioos:station:TCOON:524:1,2015-05-01T02:36:00Z,29.8672,-93.9310,0.0,3.2,220.0,4.4,'11111222,11111222,11111222' 
TCOON,ioos:station:TCOON:524:1,2015-05-01T02:42:00Z,29.8672,-93.9310,0.0,3.0,219.0,4.0,'11111222,11111222,11111222' 
TCOON,ioos:station:TCOON:524:1,2015-05-01T02:48:00Z,29.8672,-93.9310,0.0,3.2,228.0,4.5,'11111222,11111222,11111222' 
TCOON,ioos:station:TCOON:524:1,2015-05-01T02:54:00Z,29.8672,-93.9310,0.0,3.9,236.0,4.8,'11111222,11111222,11111222' 
TCOON,ioos:station:TCOON:524:1,2015-05-01T03:00:00Z,29.8672,-93.9310,0.0,4.1,228.0,4.9,'11111222,11111222,11111222' 
TCOON,ioos:station:TCOON:524:1,2015-05-01T03:06:00Z,29.8672,-93.9310,0.0,3.9,230.0,5.1,'11111222,11111222,11111222' 
TCOON,ioos:station:TCOON:524:1,2015-05-01T03:12:00Z,29.8672,-93.9310,0.0,3.9,230.0,5.1,'1111122,1111122,1111122' 
TCOON,ioos:station:TCOON:524:1,2015-05-01T03:18:00Z,29.8672,-93.9310,0.0,2.9,227.0,4.2,'11111222,11111222,11111222' 
TCOON,ioos:station:TCOON:524:1,2015-05-01T03:24:00Z,29.8672,-93.9310,0.0,3.3,233.0,4.6,'11111222,11111222,11111222' 
TCOON,ioos:station:TCOON:524:1,2015-05-01T03:30:00Z,29.8672,-93.9310,0.0,3.7,235.0,4.8,'11111222,11111222,11111222' 
TCOON,ioos:station:TCOON:524:1,2015-05-01T03:36:00Z,29.8672,-93.9310,0.0,3.9,239.0,5.2,'11111222,11111222,11111222' 
TCOON,ioos:station:TCOON:524:1,2015-05-01T03:42:00Z,29.8672,-93.9310,0.0,3.9,241.0,5.5,'11111222,11111222,11111222' 
TCOON,ioos:station:TCOON:524:1,2015-05-01T03:48:00Z,29.8672,-93.9310,0.0,4.2,238.0,5.7,'11111222,11111222,11111222' 
TCOON,ioos:station:TCOON:524:1,2015-05-01T03:54:00Z,29.8672,-93.9310,0.0,3.8,242.0,5.0,'11111222,11111222,11111222' 
TCOON,ioos:station:TCOON:524:1,2015-05-01T04:00:00Z,29.8672,-93.9310,0.0,3.9,239.0,4.5,'11111222,11111222,11111222' 
TCOON,ioos:station:TCOON:524:1,2015-05-01T04:06:00Z,29.8672,-93.9310,0.0,3.8,245.0,5.2,'11111222,11111222,11111222' 
TCOON,ioos:station:TCOON:524:1,2015-05-01T04:12:00Z,29.8672,-93.9310,0.0,3.9,241.0,5.1,'11111222,11111222,11111222' 
TCOON,ioos:station:TCOON:524:1,2015-05-01T04:18:00Z,29.8672,-93.9310,0.0,3.9,241.0,5.1,'1111122,1111122,1111122' 
TCOON,ioos:station:TCOON:524:1,2015-05-01T04:24:00Z,29.8672,-93.9310,0.0,3.9,236.0,5.2,'11111222,11111222,11111222' 
TCOON,ioos:station:TCOON:524:1,2015-05-01T04:30:00Z,29.8672,-93.9310,0.0,4.2,236.0,5.9,'11111222,11111222,11111222' 
TCOON,ioos:station:TCOON:524:1,2015-05-01T04:36:00Z,29.8672,-93.9310,0.0,4.1,239.0,6.1,'11111222,11111222,11111222' 
TCOON,ioos:station:TCOON:524:1,2015-05-01T04:42:00Z,29.8672,-93.9310,0.0,4.4,236.0,5.3,'11111222,11111222,11111222' 
TCOON,ioos:station:TCOON:524:1,2015-05-01T04:48:00Z,29.8672,-93.9310,0.0,4.5,231.0,5.9,'11111222,11111222,11111222' 
TCOON,ioos:station:TCOON:524:1,2015-05-01T04:54:00Z,29.8672,-93.9310,0.0,4.8,237.0,6.2,'11111222,11111222,11111222' 
TCOON,ioos:station:TCOON:524:1,2015-05-01T05:00:00Z,29.8672,-93.9310,0.0,4.2,236.0,5.5,'11111222,11111222,11111222' 
TCOON,ioos:station:TCOON:524:1,2015-05-01T05:06:00Z,29.8672,-93.9310,0.0,4.3,239.0,6.0,'11111222,11111222,11111222' 
TCOON,ioos:station:TCOON:524:1,2015-05-01T05:12:00Z,29.8672,-93.9310,0.0,4.4,240.0,5.7,'11111222,11111222,11111222' 
TCOON,ioos:station:TCOON:524:1,2015-05-01T05:18:00Z,29.8672,-93.9310,0.0,4.4,240.0,5.7,'1111122,1111122,1111122' 
TCOON,ioos:station:TCOON:524:1,2015-05-01T05:24:00Z,29.8672,-93.9310,0.0,4.0,248.0,5.5,'11111222,11111222,11111222' 
TCOON,ioos:station:TCOON:524:1,2015-05-01T05:30:00Z,29.8672,-93.9310,0.0,3.1,249.0,4.3,'11111222,11111222,11111222' 
TCOON,ioos:station:TCOON:524:1,2015-05-01T05:36:00Z,29.8672,-93.9310,0.0,2.9,244.0,3.7,'11111222,11111222,11111222' 
TCOON,ioos:station:TCOON:524:1,2015-05-01T05:42:00Z,29.8672,-93.9310,0.0,2.3,243.0,3.2,'11111222,11111222,11111222' 
TCOON,ioos:station:TCOON:524:1,2015-05-01T05:48:00Z,29.8672,-93.9310,0.0,1.7,242.0,3.1,'11111222,11111222,11111222' 
TCOON,ioos:station:TCOON:524:1,2015-05-01T05:54:00Z,29.8672,-93.9310,0.0,2.3,244.0,3.0,'11111222,11111222,11111222' 
TCOON,ioos:station:TCOON:524:1,2015-05-01T06:06:00Z,29.8672,-93.9310,0.0,2.6,242.0,3.4,'11111222,11111222,11111222' 
TCOON,ioos:station:TCOON:524:1,2015-05-01T06:18:00Z,29.8672,-93.9310,0.0,2.4,255.0,3.3,'1111122,1111122,1111122' 
TCOON,ioos:station:TCOON:524:1,2015-05-01T06:30:00Z,29.8672,-93.9310,0.0,3.5,275.0,5.0,'11111222,11111222,11111222' 
TCOON,ioos:station:TCOON:524:1,2015-05-01T06:42:00Z,29.8672,-93.9310,0.0,3.5,275.0,5.5,'11111222,11111222,11111222' 
TCOON,ioos:station:TCOON:524:1,2015-05-01T07:00:00Z,29.8672,-93.9310,0.0,3.8,272.0,5.0,'11111222,11111222,11111222' 
TCOON,ioos:station:TCOON:524:1,2015-05-01T07:12:00Z,29.8672,-93.9310,0.0,3.0,258.0,4.6,'11111222,11111222,11111222' 
TCOON,ioos:station:TCOON:524:1,2015-05-01T07:18:00Z,29.8672,-93.9310,0.0,3.0,258.0,4.6,'1111122,1111122,1111122' 
TCOON,ioos:station:TCOON:524:1,2015-05-01T07:30:00Z,29.8672,-93.9310,0.0,3.0,259.0,5.1,'11111222,11111222,11111222' 
TCOON,ioos:station:TCOON:524:1,2015-05-01T07:36:00Z,29.8672,-93.9310,0.0,3.0,253.0,4.9,'11111222,11111222,11111222' 
TCOON,ioos:station:TCOON:524:1,2015-05-01T07:42:00Z,29.8672,-93.9310,0.0,3.0,267.0,4.6,'11111222,11111222,11111222' 
TCOON,ioos:station:TCOON:524:1,2015-05-01T07:48:00Z,29.8672,-93.9310,0.0,3.5,269.0,4.9,'11111222,11111222,11111222' 
TCOON,ioos:station:TCOON:524:1,2015-05-01T07:54:00Z,29.8672,-93.9310,0.0,4.3,274.0,5.6,'11111222,11111222,11111222' 
TCOON,ioos:station:TCOON:524:1,2015-05-01T08:00:00Z,29.8672,-93.9310,0.0,3.1,284.0,6.0,'11111222,11111222,11111222' 
TCOON,ioos:station:TCOON:524:1,2015-05-01T08:06:00Z,29.8672,-93.9310,0.0,3.2,273.0,4.1,'11111222,11111222,11111222' 
TCOON,ioos:station:TCOON:524:1,2015-05-01T08:12:00Z,29.8672,-93.9310,0.0,3.7,282.0,5.6,'11111222,11111222,11111222' 
TCOON,ioos:station:TCOON:524:1,2015-05-01T08:18:00Z,29.8672,-93.9310,0.0,3.7,282.0,5.6,'1111122,1111122,1111122' 
TCOON,ioos:station:TCOON:524:1,2015-05-01T08:24:00Z,29.8672,-93.9310,0.0,3.5,282.0,4.9,'11111222,11111222,11111222' 
TCOON,ioos:station:TCOON:524:1,2015-05-01T08:30:00Z,29.8672,-93.9310,0.0,3.6,279.0,5.3,'11111222,11111222,11111222' 
TCOON,ioos:station:TCOON:524:1,2015-05-01T08:42:00Z,29.8672,-93.9310,0.0,2.8,289.0,4.8,'11111222,11111222,11111222' 
TCOON,ioos:station:TCOON:524:1,2015-05-01T08:48:00Z,29.8672,-93.9310,0.0,3.2,281.0,4.2,'11111222,11111222,11111222' 
TCOON,ioos:station:TCOON:524:1,2015-05-01T08:54:00Z,29.8672,-93.9310,0.0,3.5,279.0,4.3,'11111222,11111222,11111222' 
TCOON,ioos:station:TCOON:524:1,2015-05-01T09:00:00Z,29.8672,-93.9310,0.0,3.1,285.0,4.2,'11111222,11111222,11111222' 
TCOON,ioos:station:TCOON:524:1,2015-05-01T09:06:00Z,29.8672,-93.9310,0.0,3.4,283.0,4.9,'11111222,11111222,11111222' 
TCOON,ioos:station:TCOON:524:1,2015-05-01T09:12:00Z,29.8672,-93.9310,0.0,4.0,280.0,4.8,'11111222,11111222,11111222' 
TCOON,ioos:station:TCOON:524:1,2015-05-01T09:18:00Z,29.8672,-93.9310,0.0,4.0,280.0,4.8,'1111122,1111122,1111122' 
TCOON,ioos:station:TCOON:524:1,2015-05-01T09:24:00Z,29.8672,-93.9310,0.0,4.0,280.0,4.8,'11111222,11111222,11111222' 
TCOON,ioos:station:TCOON:524:1,2015-05-01T09:30:00Z,29.8672,-93.9310,0.0,3.8,280.0,4.9,'11111222,11111222,11111222' 
TCOON,ioos:station:TCOON:524:1,2015-05-01T09:36:00Z,29.8672,-93.9310,0.0,3.8,282.0,5.3,'11111222,11111222,11111222' 
TCOON,ioos:station:TCOON:524:1,2015-05-01T09:42:00Z,29.8672,-93.9310,0.0,3.1,288.0,5.1,'11111222,11111222,11111222' 
TCOON,ioos:station:TCOON:524:1,2015-05-01T09:48:00Z,29.8672,-93.9310,0.0,3.0,287.0,4.3,'11111222,11111222,11111222' 
TCOON,ioos:station:TCOON:524:1,2015-05-01T09:54:00Z,29.8672,-93.9310,0.0,3.6,282.0,4.9,'11111222,11111222,11111222' 
TCOON,ioos:station:TCOON:524:1,2015-05-01T10:00:00Z,29.8672,-93.9310,0.0,3.6,284.0,5.5,'11111222,11111222,11111222' 
TCOON,ioos:station:TCOON:524:1,2015-05-01T10:06:00Z,29.8672,-93.9310,0.0,3.8,288.0,5.1,'11111222,11111222,11111222' 
TCOON,ioos:station:TCOON:524:1,2015-05-01T10:12:00Z,29.8672,-93.9310,0.0,3.8,288.0,5.1,'1111122,1111122,1111122' 
TCOON,ioos:station:TCOON:524:1,2015-05-01T10:18:00Z,29.8672,-93.9310,0.0,2.9,293.0,4.9,'11111222,11111222,11111222' 
TCOON,ioos:station:TCOON:524:1,2015-05-01T10:24:00Z,29.8672,-93.9310,0.0,3.1,285.0,4.5,'11111222,11111222,11111222' 
TCOON,ioos:station:TCOON:524:1,2015-05-01T10:30:00Z,29.8672,-93.9310,0.0,3.0,281.0,4.2,'11111222,11111222,11111222' 
TCOON,ioos:station:TCOON:524:1,2015-05-01T10:36:00Z,29.8672,-93.9310,0.0,2.8,287.0,4.1,'11111222,11111222,11111222' 
TCOON,ioos:station:TCOON:524:1,2015-05-01T10:42:00Z,29.8672,-93.9310,0.0,2.9,295.0,4.1,'11111222,11111222,11111222' 
TCOON,ioos:station:TCOON:524:1,2015-05-01T10:48:00Z,29.8672,-93.9310,0.0,2.8,284.0,3.7,'11111222,11111222,11111222' 
TCOON,ioos:station:TCOON:524:1,2015-05-01T10:54:00Z,29.8672,-93.9310,0.0,3.1,279.0,4.2,'11111222,11111222,11111222' 
TCOON,ioos:station:TCOON:524:1,2015-05-01T11:00:00Z,29.8672,-93.9310,0.0,3.7,279.0,4.7,'11111222,11111222,11111222' 
TCOON,ioos:station:TCOON:524:1,2015-05-01T11:06:00Z,29.8672,-93.9310,0.0,3.4,278.0,5.1,'11111222,11111222,11111222' 
TCOON,ioos:station:TCOON:524:1,2015-05-01T11:12:00Z,29.8672,-93.9310,0.0,2.9,280.0,4.8,'11111222,11111222,11111222' 
TCOON,ioos:station:TCOON:524:1,2015-05-01T11:18:00Z,29.8672,-93.9310,0.0,2.9,280.0,4.8,'1111122,1111122,1111122' 
TCOON,ioos:station:TCOON:524:1,2015-05-01T11:24:00Z,29.8672,-93.9310,0.0,3.6,284.0,4.8,'11111222,11111222,11111222' 
TCOON,ioos:station:TCOON:524:1,2015-05-01T11:30:00Z,29.8672,-93.9310,0.0,3.5,283.0,4.9,'11111222,11111222,11111222' 
TCOON,ioos:station:TCOON:524:1,2015-05-01T11:36:00Z,29.8672,-93.9310,0.0,3.0,279.0,4.1,'11111222,11111222,11111222' 
TCOON,ioos:station:TCOON:524:1,2015-05-01T11:42:00Z,29.8672,-93.9310,0.0,3.4,289.0,4.8,'11111222,11111222,11111222' 
TCOON,ioos:station:TCOON:524:1,2015-05-01T11:48:00Z,29.8672,-93.9310,0.0,3.3,282.0,4.5,'11111222,11111222,11111222' 
TCOON,ioos:station:TCOON:524:1,2015-05-01T11:54:00Z,29.8672,-93.9310,0.0,2.8,282.0,4.6,'11111222,11111222,11111222' 
TCOON,ioos:station:TCOON:524:1,2015-05-01T12:00:00Z,29.8672,-93.9310,0.0,3.3,296.0,4.4,'11111222,11111222,11111222' 
TCOON,ioos:station:TCOON:524:1,2015-05-01T12:06:00Z,29.8672,-93.9310,0.0,2.7,292.0,4.1,'11111222,11111222,11111222' 
TCOON,ioos:station:TCOON:524:1,2015-05-01T12:12:00Z,29.8672,-93.9310,0.0,2.7,292.0,4.1,'1111122,1111122,1111122' 
TCOON,ioos:station:TCOON:524:1,2015-05-01T12:18:00Z,29.8672,-93.9310,0.0,3.3,294.0,4.7,'11111222,11111222,11111222' 
TCOON,ioos:station:TCOON:524:1,2015-05-01T12:24:00Z,29.8672,-93.9310,0.0,2.8,296.0,4.6,'11111222,11111222,11111222' 
TCOON,ioos:station:TCOON:524:1,2015-05-01T12:30:00Z,29.8672,-93.9310,0.0,2.9,297.0,4.2,'11111222,11111222,11111222' 
TCOON,ioos:station:TCOON:524:1,2015-05-01T12:36:00Z,29.8672,-93.9310,0.0,3.9,294.0,4.8,'11111222,11111222,11111222' 
TCOON,ioos:station:TCOON:524:1,2015-05-01T12:42:00Z,29.8672,-93.9310,0.0,3.8,296.0,5.5,'11111222,11111222,11111222' 
TCOON,ioos:station:TCOON:524:1,2015-05-01T12:48:00Z,29.8672,-93.9310,0.0,2.8,301.0,5.2,'11111222,11111222,11111222' 
TCOON,ioos:station:TCOON:524:1,2015-05-01T12:54:00Z,29.8672,-93.9310,0.0,3.9,302.0,6.0,'11111222,11111222,11111222' 
TCOON,ioos:station:TCOON:524:1,2015-05-01T13:00:00Z,29.8672,-93.9310,0.0,4.0,307.0,5.3,'11111222,11111222,11111222' 
TCOON,ioos:station:TCOON:524:1,2015-05-01T13:06:00Z,29.8672,-93.9310,0.0,4.5,300.0,5.9,'11111222,11111222,11111222' 
TCOON,ioos:station:TCOON:524:1,2015-05-01T13:12:00Z,29.8672,-93.9310,0.0,5.3,301.0,7.2,'11111222,11111222,11111222' 
TCOON,ioos:station:TCOON:524:1,2015-05-01T13:30:00Z,29.8672,-93.9310,0.0,5.1,295.0,7.8,'11111222,11111222,11111222' 
TCOON,ioos:station:TCOON:524:1,2015-05-01T13:36:00Z,29.8672,-93.9310,0.0,5.4,293.0,6.8,'11111222,11111222,11111222' 
TCOON,ioos:station:TCOON:524:1,2015-05-01T13:42:00Z,29.8672,-93.9310,0.0,4.6,300.0,6.9,'11111222,11111222,11111222' 
TCOON,ioos:station:TCOON:524:1,2015-05-01T13:48:00Z,29.8672,-93.9310,0.0,3.4,291.0,5.5,'11111222,11111222,11111222' 
TCOON,ioos:station:TCOON:524:1,2015-05-01T13:54:00Z,29.8672,-93.9310,0.0,3.1,292.0,4.2,'11111222,11111222,11111222' 
TCOON,ioos:station:TCOON:524:1,2015-05-01T14:00:00Z,29.8672,-93.9310,0.0,3.7,300.0,5.5,'11111222,11111222,11111222' 
TCOON,ioos:station:TCOON:524:1,2015-05-01T14:06:00Z,29.8672,-93.9310,0.0,5.0,306.0,6.1,'11111222,11111222,11111222' 
TCOON,ioos:station:TCOON:524:1,2015-05-01T14:12:00Z,29.8672,-93.9310,0.0,4.6,300.0,6.0,'11111222,11111222,11111222' 
TCOON,ioos:station:TCOON:524:1,2015-05-01T14:18:00Z,29.8672,-93.9310,0.0,4.6,300.0,6.0,'1111122,1111122,1111122' 
TCOON,ioos:station:TCOON:524:1,2015-05-01T14:30:00Z,29.8672,-93.9310,0.0,5.0,308.0,6.4,'11111222,11111222,11111222' 
TCOON,ioos:station:TCOON:524:1,2015-05-01T14:36:00Z,29.8672,-93.9310,0.0,4.4,292.0,6.2,'11111222,11111222,11111222' 
TCOON,ioos:station:TCOON:524:1,2015-05-01T14:42:00Z,29.8672,-93.9310,0.0,5.1,303.0,6.8,'11111222,11111222,11111222' 
TCOON,ioos:station:TCOON:524:1,2015-05-01T14:48:00Z,29.8672,-93.9310,0.0,4.8,311.0,7.0,'11111222,11111222,11111222' 
TCOON,ioos:station:TCOON:524:1,2015-05-01T14:54:00Z,29.8672,-93.9310,0.0,4.6,303.0,6.6,'11111222,11111222,11111222' 
TCOON,ioos:station:TCOON:524:1,2015-05-01T15:00:00Z,29.8672,-93.9310,0.0,5.5,309.0,7.3,'11111222,11111222,11111222' 
TCOON,ioos:station:TCOON:524:1,2015-05-01T15:06:00Z,29.8672,-93.9310,0.0,5.4,307.0,7.0,'11111222,11111222,11111222' 
TCOON,ioos:station:TCOON:524:1,2015-05-01T15:12:00Z,29.8672,-93.9310,0.0,5.7,298.0,6.9,'11111222,11111222,11111222' 
TCOON,ioos:station:TCOON:524:1,2015-05-01T15:18:00Z,29.8672,-93.9310,0.0,5.7,298.0,6.9,'1111122,1111122,1111122' 
TCOON,ioos:station:TCOON:524:1,2015-05-01T15:24:00Z,29.8672,-93.9310,0.0,5.0,304.0,6.1,'11111222,11111222,11111222' 
TCOON,ioos:station:TCOON:524:1,2015-05-01T15:30:00Z,29.8672,-93.9310,0.0,4.4,305.0,5.6,'11111222,11111222,11111222' 
TCOON,ioos:station:TCOON:524:1,2015-05-01T15:36:00Z,29.8672,-93.9310,0.0,4.0,316.0,6.1,'11111222,11111222,11111222' 
TCOON,ioos:station:TCOON:524:1,2015-05-01T15:42:00Z,29.8672,-93.9310,0.0,4.3,305.0,6.4,'11111222,11111222,11111222' 
TCOON,ioos:station:TCOON:524:1,2015-05-01T15:48:00Z,29.8672,-93.9310,0.0,4.3,318.0,6.1,'11111222,11111222,11111222' 
TCOON,ioos:station:TCOON:524:1,2015-05-01T15:54:00Z,29.8672,-93.9310,0.0,4.9,302.0,6.2,'11111222,11111222,11111222' 
TCOON,ioos:station:TCOON:524:1,2015-05-01T16:00:00Z,29.8672,-93.9310,0.0,4.2,318.0,5.5,'11111222,11111222,11111222' 
TCOON,ioos:station:TCOON:524:1,2015-05-01T16:06:00Z,29.8672,-93.9310,0.0,4.0,323.0,5.4,'11111222,11111222,11111222' 
TCOON,ioos:station:TCOON:524:1,2015-05-01T16:12:00Z,29.8672,-93.9310,0.0,5.0,335.0,6.5,'11111222,11111222,11111222' 
TCOON,ioos:station:TCOON:524:1,2015-05-01T16:18:00Z,29.8672,-93.9310,0.0,5.0,335.0,6.5,'1111122,1111122,1111122' 
TCOON,ioos:station:TCOON:524:1,2015-05-01T16:24:00Z,29.8672,-93.9310,0.0,4.4,334.0,6.0,'11111222,11111222,11111222' 
TCOON,ioos:station:TCOON:524:1,2015-05-01T16:30:00Z,29.8672,-93.9310,0.0,4.5,329.0,6.3,'11111222,11111222,11111222' 
TCOON,ioos:station:TCOON:524:1,2015-05-01T16:36:00Z,29.8672,-93.9310,0.0,3.8,329.0,5.0,'11111222,11111222,11111222' 
TCOON,ioos:station:TCOON:524:1,2015-05-01T16:42:00Z,29.8672,-93.9310,0.0,3.8,327.0,5.6,'11111222,11111222,11111222' 
TCOON,ioos:station:TCOON:524:1,2015-05-01T16:48:00Z,29.8672,-93.9310,0.0,4.0,332.0,5.5,'11111222,11111222,11111222' 
TCOON,ioos:station:TCOON:524:1,2015-05-01T16:54:00Z,29.8672,-93.9310,0.0,3.4,327.0,5.0,'11111222,11111222,11111222' 
TCOON,ioos:station:TCOON:524:1,2015-05-01T17:00:00Z,29.8672,-93.9310,0.0,3.5,302.0,4.4,'11111222,11111222,11111222' 
TCOON,ioos:station:TCOON:524:1,2015-05-01T17:06:00Z,29.8672,-93.9310,0.0,3.0,323.0,4.5,'11111222,11111222,11111222' 
TCOON,ioos:station:TCOON:524:1,2015-05-01T17:12:00Z,29.8672,-93.9310,0.0,3.3,349.0,4.6,'11111222,11111222,11111222' 
TCOON,ioos:station:TCOON:524:1,2015-05-01T17:18:00Z,29.8672,-93.9310,0.0,1.1,309.0,4.1,'11111222,11111222,11111222' 
TCOON,ioos:station:TCOON:524:1,2015-05-01T17:24:00Z,29.8672,-93.9310,0.0,1.1,309.0,4.1,'1111122,1111122,1111122' 
TCOON,ioos:station:TCOON:524:1,2015-05-01T17:30:00Z,29.8672,-93.9310,0.0,2.2,6.0,3.8,'11111222,11111222,11111222' 
TCOON,ioos:station:TCOON:524:1,2015-05-01T17:36:00Z,29.8672,-93.9310,0.0,1.4,287.0,4.3,'11111222,11111222,11111222' 
TCOON,ioos:station:TCOON:524:1,2015-05-01T17:42:00Z,29.8672,-93.9310,0.0,0.9,343.0,1.9,'11111222,11111222,11111222' 
TCOON,ioos:station:TCOON:524:1,2015-05-01T17:48:00Z,29.8672,-93.9310,0.0,2.2,10.0,2.9,'11111222,11111222,11111222' 
TCOON,ioos:station:TCOON:524:1,2015-05-01T17:54:00Z,29.8672,-93.9310,0.0,1.1,39.0,3.2,'11111222,11111222,11111222' 
TCOON,ioos:station:TCOON:524:1,2015-05-01T18:00:00Z,29.8672,-93.9310,0.0,0.8,148.0,2.6,'11111222,11111222,11111222' 
TCOON,ioos:station:TCOON:524:1,2015-05-01T18:06:00Z,29.8672,-93.9310,0.0,0.5,158.0,1.9,'11111222,11111222,11111222' 
TCOON,ioos:station:TCOON:524:1,2015-05-01T18:12:00Z,29.8672,-93.9310,0.0,2.2,92.0,3.1,'11111222,11111222,11111222' 
TCOON,ioos:station:TCOON:524:1,2015-05-01T18:18:00Z,29.8672,-93.9310,0.0,2.2,92.0,3.1,'1111122,1111122,1111122' 
TCOON,ioos:station:TCOON:524:1,2015-05-01T18:24:00Z,29.8672,-93.9310,0.0,3.1,103.0,4.2,'11111222,11111222,11111222' 
TCOON,ioos:station:TCOON:524:1,2015-05-01T18:30:00Z,29.8672,-93.9310,0.0,2.9,100.0,4.0,'11111222,11111222,11111222' 
TCOON,ioos:station:TCOON:524:1,2015-05-01T18:36:00Z,29.8672,-93.9310,0.0,2.3,107.0,3.5,'11111222,11111222,11111222' 
TCOON,ioos:station:TCOON:524:1,2015-05-01T18:42:00Z,29.8672,-93.9310,0.0,1.9,121.0,3.0,'11111222,11111222,11111222' 
TCOON,ioos:station:TCOON:524:1,2015-05-01T18:48:00Z,29.8672,-93.9310,0.0,1.7,114.0,2.7,'11111222,11111222,11111222' 
TCOON,ioos:station:TCOON:524:1,2015-05-01T18:54:00Z,29.8672,-93.9310,0.0,2.7,100.0,4.1,'11111222,11111222,11111222' 
TCOON,ioos:station:TCOON:524:1,2015-05-01T19:00:00Z,29.8672,-93.9310,0.0,2.6,96.0,3.1,'11111222,11111222,11111222' 
TCOON,ioos:station:TCOON:524:1,2015-05-01T19:06:00Z,29.8672,-93.9310,0.0,2.4,116.0,2.9,'11111222,11111222,11111222' 
TCOON,ioos:station:TCOON:524:1,2015-05-01T19:12:00Z,29.8672,-93.9310,0.0,2.4,114.0,2.8,'11111222,11111222,11111222' 
TCOON,ioos:station:TCOON:524:1,2015-05-01T19:18:00Z,29.8672,-93.9310,0.0,2.4,114.0,2.8,'1111122,1111122,1111122' 
TCOON,ioos:station:TCOON:524:1,2015-05-01T19:24:00Z,29.8672,-93.9310,0.0,1.7,127.0,3.1,'11111222,11111222,11111222' 
TCOON,ioos:station:TCOON:524:1,2015-05-01T19:30:00Z,29.8672,-93.9310,0.0,2.4,112.0,3.4,'11111222,11111222,11111222' 
TCOON,ioos:station:TCOON:524:1,2015-05-01T19:36:00Z,29.8672,-93.9310,0.0,1.3,132.0,3.0,'11111222,11111222,11111222' 
TCOON,ioos:station:TCOON:524:1,2015-05-01T19:42:00Z,29.8672,-93.9310,0.0,1.7,132.0,2.8,'11111222,11111222,11111222' 
TCOON,ioos:station:TCOON:524:1,2015-05-01T19:48:00Z,29.8672,-93.9310,0.0,1.8,130.0,3.1,'11111222,11111222,11111222' 
TCOON,ioos:station:TCOON:524:1,2015-05-01T19:54:00Z,29.8672,-93.9310,0.0,2.1,142.0,2.9,'11111222,11111222,11111222' 
TCOON,ioos:station:TCOON:524:1,2015-05-01T20:00:00Z,29.8672,-93.9310,0.0,2.0,149.0,2.7,'11111222,11111222,11111222' 
TCOON,ioos:station:TCOON:524:1,2015-05-01T20:06:00Z,29.8672,-93.9310,0.0,2.1,147.0,2.7,'11111222,11111222,11111222' 
TCOON,ioos:station:TCOON:524:1,2015-05-01T20:12:00Z,29.8672,-93.9310,0.0,1.8,151.0,2.8,'11111222,11111222,11111222' 
TCOON,ioos:station:TCOON:524:1,2015-05-01T20:18:00Z,29.8672,-93.9310,0.0,1.8,151.0,2.8,'1111122,1111122,1111122' 
TCOON,ioos:station:TCOON:524:1,2015-05-01T20:24:00Z,29.8672,-93.9310,0.0,2.3,160.0,3.2,'11111222,11111222,11111222' 
TCOON,ioos:station:TCOON:524:1,2015-05-01T20:30:00Z,29.8672,-93.9310,0.0,1.9,162.0,3.0,'11111222,11111222,11111222' 
TCOON,ioos:station:TCOON:524:1,2015-05-01T20:36:00Z,29.8672,-93.9310,0.0,2.2,169.0,3.0,'11111222,11111222,11111222' 
TCOON,ioos:station:TCOON:524:1,2015-05-01T20:42:00Z,29.8672,-93.9310,0.0,1.8,164.0,2.9,'11111222,11111222,11111222' 
TCOON,ioos:station:TCOON:524:1,2015-05-01T20:48:00Z,29.8672,-93.9310,0.0,1.5,164.0,2.8,'11111222,11111222,11111222' 
TCOON,ioos:station:TCOON:524:1,2015-05-01T20:54:00Z,29.8672,-93.9310,0.0,2.0,157.0,2.5,'11111222,11111222,11111222' 
TCOON,ioos:station:TCOON:524:1,2015-05-01T21:00:00Z,29.8672,-93.9310,0.0,1.9,139.0,3.2,'11111222,11111222,11111222' 
TCOON,ioos:station:TCOON:524:1,2015-05-01T21:06:00Z,29.8672,-93.9310,0.0,2.4,162.0,3.1,'11111222,11111222,11111222' 
TCOON,ioos:station:TCOON:524:1,2015-05-01T21:12:00Z,29.8672,-93.9310,0.0,2.7,161.0,3.3,'11111222,11111222,11111222' 
TCOON,ioos:station:TCOON:524:1,2015-05-01T21:18:00Z,29.8672,-93.9310,0.0,2.7,161.0,3.3,'1111122,1111122,1111122' 
TCOON,ioos:station:TCOON:524:1,2015-05-01T21:24:00Z,29.8672,-93.9310,0.0,1.9,141.0,2.5,'11111222,11111222,11111222' 
TCOON,ioos:station:TCOON:524:1,2015-05-01T21:30:00Z,29.8672,-93.9310,0.0,1.1,152.0,2.4,'11111222,11111222,11111222' 